Torna al catalogo

THOR ABLESTAR DEB

AttivoVLEO
NORAD 122·DEBRIS·🇺🇸 United States

Lanciato Jun 29, 1961 da Cape Canaveral Space Force Station

Loading…

Prossimi Passaggi (prossime 24 ore)

TLE

AggiornatoSource: Space-Track

Epoca: Sep 14, 2026, 11:48 UTC

1 00122U 61015G   26257.49235218  .00005845  00000-0  44495-3 0  9995
2 00122  66.7384 281.7127 0030661 139.3428 221.0005 15.02499510407686

Traccia THOR ABLESTAR DEB in tempo reale con AllMySat

Download on the App Store